This is the latest recevied weather packets stored in our database for station/object F1AGU-13. If no packets are shown the sender has not sent any weather packets the latest 10 day(s).
| Time | Temp. | Humidity | Pressure | Rain* | Wind** | Luminosity | Snow |
|---|---|---|---|---|---|---|---|
| 1777745116 | 15.56° C | 66% | 1018.9 hPa | 0 mm | - | - | - |
| 1777744516 | 15.56° C | 65% | 1018.9 hPa | 0 mm | - | - | - |
| 1777743916 | 15.56° C | 66% | 1019 hPa | 0 mm | - | - | - |
| 1777743316 | 16.11° C | 68% | 1019 hPa | 0 mm | - | - | - |
| 1777742716 | 16.11° C | 67% | 1019 hPa | 0 mm | - | - | - |
| 1777742116 | 16.67° C | 67% | 1019.1 hPa | 0 mm | - | - | - |
| 1777741516 | 17.22° C | 65% | 1019.4 hPa | 0 mm | - | - | - |
| 1777740918 | 17.78° C | 63% | 1019.3 hPa | 0 mm | - | - | - |
| 1777740316 | 18.33° C | 62% | 1019.6 hPa | 0 mm | - | - | - |
| 1777739716 | 18.33° C | 57% | 1019.6 hPa | 0 mm | - | - | - |
| 1777739116 | 18.89° C | 55% | 1019.7 hPa | 0 mm | - | - | - |
| 1777738516 | 18.89° C | 55% | 1020.1 hPa | 0 mm | - | - | - |
| 1777737916 | 18.89° C | 57% | 1020.1 hPa | 0 mm | - | - | - |
| 1777737316 | 19.44° C | 51% | 1020.2 hPa | 0 mm | - | - | - |
| 1777736716 | 19.44° C | 53% | 1020.3 hPa | 0 mm | - | - | - |
| 1777736116 | 18.89° C | 52% | 1020.3 hPa | 0 mm | - | - | - |
| 1777735516 | 19.44° C | 59% | 1020.6 hPa | 0 mm | - | - | - |
| 1777734916 | 19.44° C | 55% | 1020.5 hPa | 0 mm | - | - | - |
| 1777734316 | 19.44° C | 56% | 1021 hPa | 0 mm | - | - | - |
| 1777733716 | 19.44° C | 55% | 1021 hPa | 0 mm | - | - | - |
| 1777733116 | 19.44° C | 56% | 1021.1 hPa | 0 mm | - | - | - |
| 1777732516 | 19.44° C | 53% | 1021.1 hPa | 0 mm | - | - | - |
| 1777731916 | 19.44° C | 54% | 1021.1 hPa | 0 mm | - | - | - |
| 1777731316 | 20° C | 52% | 1021.4 hPa | 0 mm | - | - | - |
| 1777730716 | 20° C | 49% | 1021.5 hPa | 0 mm | - | - | - |
* Rain latest hour (hover to see other rain measurements)
** Current wind speed in m/s (hover to see current wind gust speed)